Wind_Speed
12 14 14 14 14 15 15 15 13 12 13 13 11 9 9 9 8 8 9 10 8 9 9 4 5 7 7 6 6 6 6 7 7 7 6 6 6 6 6 6 5 5 5 5 4 4 3 3 2 2 2 3 3 3 3 4 5 5 6 7 9 11 13 13 13 12 12 11 11 10 9 10 11 13 13 12 12 11 9 9 9 9 10 11 11
12 12 13 13 13 13 14 14 13 11 11 12 11 9 7 7 7 7 8 9 9 10 8 4 5 6 5 5 6 6 6 6 6 6 6 6 5 6 6 6 5 5 5 5 4 4 4 4 3 3 3 4 4 4 5 5 5 6 7 9 11 12 13 13 13 13 13 12 12 11 11 12 13 13 13 12 12 11 10 9 9 10 9 9 9
11 11 12 13 12 11 12 13 12 11 10 11 10 8 7 6 6 6 6 8 9 10 7 5 5 6 4 4 5 6 6 6 6 6 6 5 4 5 5 5 5 5 5 5 5 4 4 5 4 4 4 5 5 6 6 6 6 6 8 10 12 13 12 13 13 13 13 13 13 13 13 14 14 13 12 12 11 11 10 10 10 10 9 8 8
10 11 12 12 12 11 11 10 10 10 10 10 9 8 7 7 6 5 5 6 8 9 7 6 6 7 5 4 5 6 6 6 6 6 5 4 4 5 5 6 6 6 6 6 6 5 5 5 5 5 5 5 6 7 7 7 7 7 8 10 12 13 12 12 13 13 13 14 14 15 15 15 14 13 12 12 11 11 10 10 9 9 8 7 7
11 11 11 11 12 11 10 8 9 9 9 10 9 7 7 7 6 6 4 5 7 6 6 5 5 6 5 4 4 5 5 6 6 6 6 5 5 6 6 6 6 7 9 8 7 7 6 6 7 6 6 5 7 8 7 7 8 8 9 10 12 12 12 11 12 13 14 14 15 16 16 15 14 13 13 12 12 11 10 9 9 8 7 7 8
11 11 11 10 11 11 10 9 9 8 8 9 8 7 7 7 6 6 5 5 5 6 6 4 5 5 4 3 3 4 5 5 6 7 7 6 6 8 8 8 7 6 9 11 9 9 8 7 7 7 7 6 7 8 8 8 8 9 9 10 11 11 11 11 11 12 15 16 16 16 15 15 14 14 13 12 11 10 9 8 8 8 8 8 9
11 12 11 10 12 12 9 9 9 8 7 7 7 7 7 7 7 6 6 6 7 6 4 3 4 4 4 3 3 3 4 4 6 6 7 6 7 8 9 10 11 7 7 12 12 11 9 9 8 8 9 8 8 9 9 9 9 9 9 10 11 10 10 10 10 11 14 16 16 15 14 14 14 13 12 11 10 9 8 8 8 8 9 10 11
11 11 12 11 12 12 9 9 9 8 8 7 7 7 7 7 6 5 5 5 6 4 3 3 3 3 3 3 3 4 4 4 6 6 6 6 7 8 9 11 14 11 7 8 12 13 10 10 9 10 11 11 10 10 10 10 9 9 9 10 10 10 10 9 10 11 14 15 15 14 13 13 12 12 11 10 9 9 9 9 9 10 11 12 13
11 11 11 11 12 11 10 10 10 9 8 8 7 7 6 5 4 4 3 3 3 3 3 4 4 3 3 4 4 5 4 5 5 5 5 6 7 7 8 10 14 14 9 6 10 13 12 11 11 11 12 12 12 11 11 11 10 10 10 10 10 10 10 10 10 12 13 14 13 13 12 12 11 10 10 10 10 10 11 11 11 12 13 14 14
10 10 9 9 10 9 9 9 9 9 8 7 6 4 4 3 3 3 3 3 3 4 4 4 4 3 3 4 5 5 4 5 5 5 5 6 6 6 7 11 14 15 11 7 8 12 13 12 12 13 13 13 12 12 12 12 11 10 10 11 11 10 10 11 12 12 13 13 12 12 11 11 10 10 10 11 11 12 12 13 13 14 14 14 14
10 10 9 8 9 8 8 7 7 6 5 4 4 3 2 3 3 2 2 3 3 4 4 4 3 3 3 4 4 4 4 5 5 5 5 5 5 6 8 11 14 15 12 9 10 12 12 12 13 14 14 14 13 13 13 12 12 11 11 11 11 11 12 12 13 13 13 12 11 10 10 10 10 11 11 12 12 13 13 14 14 15 15 14 14
10 10 9 8 8 8 7 6 6 5 3 3 3 2 1 2 2 2 2 3 3 4 4 4 4 4 3 4 4 4 5 6 5 5 5 6 5 6 8 11 14 15 11 11 14 14 12 11 11 13 13 14 15 15 14 13 12 12 12 12 12 13 13 14 13 13 12 11 10 10 10 10 11 11 12 12 13 14 14 15 15 15 15 14 14
11 10 9 8 8 7 6 6 6 4 2 3 3 3 2 2 3 3 3 4 4 5 5 5 5 5 5 6 5 6 8 8 8 7 8 8 9 9 10 12 14 15 12 12 16 15 13 11 10 12 12 14 15 16 15 13 13 13 13 13 14 15 15 14 13 13 12 11 10 10 10 11 11 11 13 13 14 14 15 15 15 15 14 14 13
11 10 9 8 8 7 6 6 5 3 2 2 3 4 3 3 4 4 4 4 5 5 6 7 6 7 8 8 7 8 9 11 11 11 11 11 11 12 12 13 15 15 13 13 15 15 14 12 12 13 13 13 15 16 15 14 14 14 15 15 16 16 15 14 13 12 11 11 11 11 11 12 12 13 14 14 14 14 15 15 15 14 14 13 12
10 9 8 7 8 7 5 5 4 2 2 3 3 5 5 4 5 5 5 6 7 7 8 8 8 9 9 9 9 9 10 12 14 14 13 13 13 13 13 15 15 13 12 14 15 14 14 14 14 15 15 14 16 16 14 15 16 16 16 16 16 16 15 14 13 13 12 12 12 12 13 13 14 14 14 14 14 14 15 15 14 13 13 12 11
10 9 8 7 8 7 5 5 5 4 4 3 4 6 7 6 6 6 6 7 9 8 9 9 9 9 9 10 10 11 11 13 14 15 15 13 13 13 13 16 14 11 12 15 15 14 14 14 15 15 16 15 16 15 15 16 17 17 16 16 16 15 14 14 13 13 13 13 13 14 14 14 15 14 14 14 15 15 14 14 13 12 12 11 10
10 9 8 7 8 7 6 6 6 5 5 4 5 7 8 7 7 8 8 9 10 9 10 10 10 10 10 11 11 12 13 14 15 15 15 14 14 13 13 14 13 11 13 16 16 15 14 14 15 16 16 16 16 16 16 17 17 17 16 16 15 14 14 14 14 14 14 14 15 15 15 15 15 15 14 15 15 15 14 13 12 11 11 10 10
10 9 7 7 8 8 7 6 7 6 5 5 5 7 8 8 8 8 9 10 11 10 10 11 11 11 11 12 12 12 13 15 15 15 15 15 14 14 13 14 13 13 15 17 16 15 14 14 15 16 16 17 17 17 17 17 17 16 16 16 15 14 14 14 15 15 15 15 15 15 15 15 15 15 15 15 15 14 13 12 11 11 10 10 10
10 9 7 7 9 8 7 7 8 6 5 5 5 7 7 7 8 9 9 11 12 11 11 11 11 11 12 13 14 13 14 15 15 15 15 15 15 14 14 14 14 16 17 17 16 15 15 15 16 16 17 17 17 17 17 17 16 16 16 16 15 14 14 15 15 16 16 16 15 15 15 15 15 15 15 15 14 14 12 11 11 10 10 10 10
10 9 7 8 9 9 7 8 8 7 6 6 6 7 8 8 8 9 10 11 13 12 11 12 12 12 12 14 15 15 15 16 16 16 16 15 15 15 16 16 16 17 17 16 15 15 15 16 17 17 17 17 17 17 17 16 16 16 16 16 15 15 15 15 16 16 16 15 15 15 15 15 16 16 16 15 14 13 12 11 11 10 10 10 10
10 9 8 9 10 9 8 9 9 8 7 7 7 8 9 9 8 10 10 11 13 13 12 12 13 13 13 14 16 16 17 17 17 17 16 16 16 16 17 17 17 17 17 16 16 16 16 16 17 17 16 16 16 16 16 16 16 16 16 15 15 15 15 15 16 16 16 15 15 15 15 15 16 16 15 14 13 12 12 11 11 10 10 10 10
10 9 9 10 11 10 9 10 10 9 8 7 8 9 9 9 8 9 10 11 13 13 13 13 14 14 14 15 16 17 18 18 18 18 16 16 17 18 18 18 18 17 17 17 16 16 16 16 16 15 15 14 14 14 15 16 16 16 16 15 15 15 15 15 15 16 15 15 15 15 15 16 16 15 14 14 12 12 11 11 10 10 10 10 10
10 9 9 10 11 11 10 10 10 9 8 8 8 9 9 9 10 10 10 12 13 13 13 13 15 16 16 16 17 18 19 19 19 18 17 18 19 19 19 19 18 18 17 17 16 15 15 15 14 14 13 14 14 14 15 15 16 16 16 15 15 15 15 16 15 15 16 16 16 16 16 16 15 14 13 13 12 11 11 10 10 9 9 9 10
10 10 9 10 11 12 11 10 10 9 8 8 8 8 10 10 11 11 11 13 14 14 14 14 16 17 18 19 19 20 20 20 19 19 20 21 21 21 21 20 18 17 17 16 15 15 14 14 14 13 14 15 16 16 16 16 16 16 16 15 15 15 16 16 16 16 17 17 17 16 16 15 14 13 13 12 12 11 11 10 9 9 9 9 9
10 10 9 9 10 11 11 10 10 9 8 8 9 9 11 11 11 12 12 14 15 15 15 16 18 19 20 21 21 21 20 20 21 22 23 23 22 22 21 20 18 17 16 15 15 15 15 15 15 15 16 17 17 17 17 16 16 16 16 15 15 16 16 16 17 17 17 17 17 17 16 15 14 13 13 12 12 11 11 10 9 9 8 8 8
10 10 9 9 9 11 11 11 10 9 8 9 9 10 11 12 12 12 13 15 16 16 17 18 19 20 21 21 21 21 21 22 23 24 23 22 21 21 20 19 17 16 16 15 16 16 17 17 17 17 17 17 17 17 16 16 16 16 16 16 16 16 17 18 18 18 18 18 18 17 17 16 15 14 13 13 12 11 11 10 9 9 8 8 8
10 9 9 8 9 10 11 11 11 10 9 9 10 11 12 12 13 13 15 16 16 17 18 19 19 20 20 20 20 21 23 24 24 24 23 21 20 19 19 18 17 16 16 17 18 18 19 19 18 17 16 17 17 16 16 16 16 16 16 16 17 17 18 18 19 19 19 19 19 18 18 17 15 14 13 12 12 11 11 10 9 9 8 8 8
10 9 8 8 9 11 12 13 13 11 10 10 11 12 13 14 14 15 16 17 18 18 19 19 19 19 20 20 21 23 24 24 24 23 22 20 19 18 18 17 16 16 17 18 19 19 19 19 18 17 16 16 17 17 16 16 17 17 17 17 17 18 19 19 20 20 20 19 19 18 17 16 14 13 13 12 12 11 11 11 10 9 9 9 8
9 10 9 9 10 12 14 15 15 13 12 12 13 14 14 15 15 16 17 18 19 20 20 20 20 20 21 21 22 23 24 24 23 22 21 19 18 17 17 16 16 16 17 18 19 19 19 18 18 18 17 17 17 17 17 17 17 17 17 18 18 19 20 20 21 20 20 19 18 17 16 15 14 13 13 13 12 12 12 11 10 10 9 9 8
9 10 11 10 11 13 15 16 16 15 15 15 15 15 16 16 16 17 18 19 20 20 20 20 20 21 22 23 23 23 23 23 22 21 19 18 17 16 16 16 16 16 17 18 19 19 18 18 18 18 18 17 17 17 17 17 17 18 18 18 18 19 20 20 20 19 18 18 17 16 15 14 14 13 13 13 12 12 11 11 10 10 9 9 8
9 11 12 12 13 15 16 17 17 17 16 17 17 17 17 18 18 18 18 19 20 20 20 20 21 22 23 23 22 22 22 21 20 20 19 17 16 15 15 15 15 16 17 19 19 19 18 18 19 19 18 18 17 17 17 17 18 18 18 19 19 19 18 18 17 17 16 16 16 15 14 14 13 13 13 12 12 11 11 10 10 10 9 8 7
9 11 13 14 15 16 17 17 17 17 17 18 18 18 18 18 18 18 19 19 20 20 20 21 21 22 22 22 21 21 21 20 20 19 18 17 16 15 15 15 15 16 18 19 19 19 19 19 19 19 18 18 17 17 17 17 17 18 18 18 18 18 17 16 16 15 15 15 15 14 13 13 13 12 12 12 11 10 10 10 10 9 9 8 7
9 11 13 14 16 17 18 18 18 18 18 18 18 19 19 19 19 18 19 19 20 20 20 20 20 20 20 20 20 20 20 19 19 18 18 17 16 15 15 15 15 16 17 18 18 18 18 19 19 19 19 18 18 17 17 17 17 17 17 17 17 16 16 15 15 14 14 14 13 12 12 12 12 11 11 10 10 9 9 9 9 9 9 8 7
9 11 12 14 16 17 18 18 18 18 18 18 18 18 19 19 19 18 19 19 19 19 19 19 19 19 19 19 19 19 19 18 18 17 17 16 16 15 15 15 15 16 17 17 17 17 17 18 19 19 19 18 18 18 17 17 16 16 16 16 16 15 15 14 14 13 13 13 12 12 11 11 11 10 9 9 8 8 8 9 9 9 9 8 7
9 10 12 14 16 17 18 18 19 19 18 18 18 18 18 18 18 18 18 18 18 18 18 18 18 17 17 17 17 17 17 17 17 17 17 16 15 15 14 14 15 16 16 16 17 16 16 17 18 19 19 19 18 18 17 17 16 15 15 15 15 15 13 12 13 12 11 11 11 11 10 9 9 8 8 7 7 8 8 8 8 8 8 8 8
9 10 12 14 15 16 17 18 18 18 18 17 17 17 17 17 17 17 16 17 17 17 17 17 17 16 16 16 16 16 15 15 16 16 17 16 15 14 13 13 14 15 16 15 15 15 15 16 17 18 19 18 18 17 17 16 15 14 14 13 13 13 12 11 11 11 9 9 9 9 8 7 6 6 6 5 6 7 7 7 8 8 8 9 9
9 10 11 12 14 16 16 17 17 17 17 17 17 17 16 16 16 16 16 15 16 16 17 16 16 16 16 15 15 15 15 14 14 15 16 16 15 14 13 12 12 14 15 14 14 14 14 14 15 17 18 18 17 17 16 15 14 13 12 12 12 12 11 10 10 9 8 7 6 6 5 4 4 4 4 5 6 6 6 7 8 9 9 10 10
10 10 11 12 13 14 15 16 16 16 16 16 16 16 16 16 16 16 15 15 15 15 15 16 16 16 16 15 15 14 14 14 14 14 15 15 14 13 12 12 11 12 13 13 13 12 12 12 13 14 16 16 16 16 15 14 13 11 10 9 10 10 9 8 8 8 7 4 3 4 4 3 3 2 3 3 5 6 6 7 7 8 9 9 9
10 11 11 11 12 13 14 14 15 15 14 14 15 15 16 16 16 16 15 15 14 14 14 15 15 15 15 15 15 14 14 14 14 14 14 14 13 12 11 11 11 11 11 11 11 11 11 10 10 12 13 14 14 14 13 13 12 10 9 7 7 8 7 6 6 7 5 2 3 4 3 3 4 5 6 5 6 7 6 7 8 8 8 8 8
10 11 11 11 11 12 12 13 13 14 14 13 14 14 15 16 16 16 15 15 14 14 14 15 15 15 15 15 15 14 14 13 13 13 13 13 12 11 10 10 10 9 9 9 9 9 10 9 9 10 11 11 12 12 12 11 10 9 8 7 5 5 5 6 5 5 3 2 2 3 4 5 5 6 6 6 7 7 7 9 8 7 7 7 7
10 10 11 11 11 11 12 12 13 13 13 13 13 13 14 15 15 16 16 15 15 15 15 15 16 16 15 15 14 14 13 13 13 13 12 12 11 10 9 9 8 8 8 8 8 8 9 9 10 10 9 9 10 11 11 10 9 8 7 6 5 3 3 4 4 3 3 3 3 3 4 5 5 6 7 8 8 8 7 8 7 6 6 6 6
10 10 10 11 11 12 12 12 12 13 13 13 13 13 13 14 14 15 15 15 15 15 15 15 15 15 15 14 14 13 13 12 12 13 12 11 10 9 9 8 7 7 7 7 7 8 8 9 10 10 10 9 9 9 9 9 8 7 6 5 4 3 2 3 2 2 2 2 4 4 4 5 5 5 6 8 8 8 6 5 5 4 4 4 4
10 10 10 11 11 12 12 12 12 13 13 14 13 13 13 14 14 14 14 14 14 14 14 14 14 14 14 13 13 13 12 12 11 11 12 11 10 9 8 7 7 6 7 7 7 7 7 9 10 10 10 10 9 8 7 6 6 5 4 4 3 2 1 1 1 1 1 2 4 5 5 6 6 7 7 7 7 6 5 4 4 4 5 6 5
10 11 10 11 11 11 12 12 12 12 13 13 13 13 13 13 13 13 13 13 13 13 13 12 12 12 12 12 12 11 11 11 10 10 10 10 9 9 8 7 6 5 6 6 6 6 6 7 9 9 9 9 9 8 7 5 4 4 3 2 2 1 0 0 1 1 2 3 5 5 5 6 7 7 7 7 6 5 5 5 4 5 7 8 8
11 11 11 11 11 11 12 12 12 12 13 13 13 12 12 12 12 12 12 12 12 12 12 12 11 11 11 11 11 10 10 10 10 10 9 9 9 9 8 7 6 6 5 5 6 6 6 6 7 8 7 7 7 7 7 6 5 3 2 2 1 1 1 1 2 3 3 4 5 6 6 7 8 7 7 7 6 5 6 6 6 6 7 8 7
12 11 11 11 11 11 11 12 12 12 12 13 13 12 11 11 10 10 10 11 11 11 11 11 11 11 10 10 10 9 9 9 9 9 9 9 9 8 8 8 7 6 5 5 5 5 5 5 6 6 6 6 6 6 6 6 5 4 3 2 1 0 1 2 2 2 3 3 5 6 7 7 7 7 7 6 6 6 6 7 8 7 7 6 6
13 12 12 12 11 11 11 11 11 12 12 13 13 13 12 12 12 12 11 11 11 11 10 10 10 10 10 9 9 9 9 8 8 9 9 8 8 8 8 7 7 6 5 5 5 5 5 5 5 5 6 5 5 5 4 4 3 3 2 1 0 1 1 2 2 2 3 3 4 5 6 6 6 6 7 6 6 7 7 7 7 6 6 6 5
15 14 13 13 13 12 11 11 11 12 12 12 13 13 13 13 13 13 12 12 11 11 10 10 9 9 9 9 9 8 8 8 8 8 8 8 7 7 7 6 6 6 5 5 4 5 5 5 4 4 5 5 4 3 3 2 1 1 1 1 2 2 2 2 3 3 3 4 4 4 5 5 6 6 6 6 6 6 6 6 6 5 5 5 5
16 16 15 14 13 13 12 12 11 12 12 12 12 13 12 12 12 12 12 12 12 11 10 10 10 9 9 9 9 8 8 8 7 7 7 7 7 7 6 6 6 6 6 5 5 5 5 5 4 4 4 4 4 3 2 1 0 1 2 2 2 2 3 3 3 4 4 4 4 4 4 5 5 5 5 5 5 5 4 5 5 5 5 5 6
17 17 16 15 14 14 13 13 12 12 13 13 13 13 12 12 12 11 11 12 11 11 11 10 10 9 9 9 8 8 7 7 7 7 7 7 6 6 6 6 6 6 6 6 5 5 5 4 4 4 4 4 3 3 2 1 0 1 1 1 2 2 3 4 4 4 5 5 4 4 4 4 3 4 4 4 4 4 4 4 4 4 4 5 5
18 17 17 16 15 15 15 13 13 13 13 13 13 13 13 13 12 12 11 11 11 11 11 10 10 9 9 8 8 7 7 6 6 6 6 6 6 6 6 6 6 6 6 6 5 5 4 4 4 4 3 3 2 2 1 0 0 1 1 2 2 2 3 3 4 5 5 5 4 4 3 3 2 2 3 3 3 3 4 4 4 4 4 4 5
Wind_Direction
104 103 103 104 107 110 110 108 106 107 110 111 114 121 131 132 134 137 131 125 123 111 102 124 149 132 136 140 144 145 145 144 143 142 142 146 144 140 136 135 136 130 119 114 114 112 115 121 128 136 124 110 109 113 106 98 103 108 106 108 110 111 115 118 119 116 113 109 107 106 107 112 115 115 117 117 115 112 108 102 93 85 82 83 85
104 102 102 103 108 112 113 110 108 108 111 114 116 117 117 116 115 124 128 126 123 109 106 157 156 127 134 142 145 143 141 140 139 141 142 149 147 142 137 138 137 130 125 122 124 125 132 141 147 146 128 119 112 108 102 99 104 112 113 114 113 112 113 114 113 111 110 109 109 109 110 116 118 118 119 118 117 116 113 108 101 94 87 82 78
107 105 103 105 109 110 109 109 110 110 113 115 116 114 108 103 101 110 124 127 122 112 122 174 148 119 128 140 141 139 139 138 136 140 143 145 143 138 132 140 146 142 139 138 138 137 144 148 149 146 135 125 114 108 103 99 100 106 110 113 113 112 110 110 108 107 107 109 111 114 116 119 121 121 120 117 115 113 111 107 101 95 88 80 73
113 108 106 108 111 107 102 105 107 108 112 110 108 112 111 109 105 105 115 121 120 120 141 169 145 126 132 140 135 134 138 140 141 143 143 141 142 140 139 154 160 152 151 151 147 143 146 146 145 139 134 128 112 108 107 103 102 103 108 111 112 110 109 108 106 106 107 110 114 118 121 121 121 119 116 113 111 109 107 103 97 92 88 83 79
117 113 111 112 113 110 105 104 104 102 107 107 109 115 116 121 120 121 119 107 109 132 166 165 138 133 139 142 130 133 143 146 150 148 146 149 152 149 149 159 164 160 156 155 152 147 150 143 134 131 131 124 109 107 110 110 111 110 112 111 110 109 109 107 106 108 109 112 116 120 122 120 118 115 112 111 109 106 103 99 96 93 91 88 86
116 114 115 116 114 114 114 113 112 108 108 110 116 119 117 126 134 141 136 122 132 162 177 155 138 142 145 144 133 144 152 154 162 159 157 166 165 155 153 154 162 173 155 150 157 151 148 144 129 126 127 117 107 110 115 117 116 115 116 114 111 109 107 104 105 108 110 114 118 119 119 117 115 114 113 112 110 108 104 99 96 93 92 91 91
115 114 117 119 115 117 122 119 118 117 116 117 120 119 120 136 148 156 155 156 172 178 163 151 158 156 159 162 151 163 166 168 177 175 172 175 177 168 164 158 154 168 162 147 151 147 140 139 131 125 122 116 112 114 119 119 118 118 119 116 113 108 104 101 100 104 108 113 117 116 115 114 113 113 113 112 111 107 102 98 95 95 96 95 95
112 114 119 120 118 123 126 119 120 124 125 126 128 132 134 144 153 166 178 174 179 176 160 184 189 166 182 196 183 181 181 187 193 192 189 188 192 186 181 167 149 154 174 152 139 137 135 131 128 123 115 113 113 114 119 121 120 120 120 117 114 110 107 103 101 103 107 111 114 114 112 110 110 111 111 109 106 103 101 100 100 101 100 99 99
110 112 114 115 116 123 125 123 127 130 132 130 132 138 138 143 155 168 185 186 181 182 190 214 218 194 193 214 210 198 193 198 205 206 205 208 203 195 189 170 147 143 160 162 132 126 128 123 119 119 113 111 111 114 119 121 121 121 122 120 119 118 116 111 109 110 111 111 111 110 108 108 109 109 107 104 103 103 104 105 106 106 104 104 102
106 104 102 101 103 108 110 115 120 123 126 126 127 127 128 144 158 164 180 191 182 178 191 212 223 212 200 208 210 203 201 201 208 216 215 217 207 200 190 163 142 135 141 155 135 119 117 116 114 116 114 112 110 111 118 121 123 124 125 125 126 124 120 116 116 116 113 110 109 108 107 106 105 105 104 104 106 107 108 110 110 108 106 104 101
103 99 96 95 93 91 89 92 96 100 107 107 105 102 120 152 154 160 169 181 174 170 182 193 199 207 203 189 187 187 192 193 197 208 205 199 195 195 180 154 132 125 130 136 124 109 106 107 110 113 115 115 111 113 121 126 128 129 129 130 129 124 120 119 119 117 112 110 109 106 106 105 104 106 106 107 109 110 110 110 109 108 106 103 99
105 101 97 92 84 79 79 82 82 84 89 97 100 110 142 144 144 168 162 161 162 165 172 172 175 186 176 155 160 159 163 167 167 173 166 156 160 163 153 138 123 117 122 122 113 105 103 103 105 109 115 117 117 120 126 129 130 130 130 129 126 123 120 120 118 115 111 109 107 106 105 105 106 108 108 109 110 110 110 110 109 108 106 103 99
103 98 94 87 80 73 72 74 73 76 82 103 123 150 169 132 136 165 161 152 149 152 156 154 156 157 146 142 147 141 139 136 130 136 137 135 139 137 129 121 111 107 111 114 110 108 110 111 108 110 115 118 118 120 123 128 128 127 127 126 124 122 121 119 117 113 111 110 109 109 107 105 107 109 109 110 110 111 111 111 110 109 107 104 99
99 97 94 91 89 84 76 73 74 78 92 112 136 145 149 132 138 154 155 141 136 140 139 141 144 142 140 141 140 133 129 125 123 127 128 130 129 124 117 108 99 100 110 113 110 111 115 116 113 111 116 119 116 115 121 126 125 124 123 123 122 121 120 118 116 114 113 114 113 111 108 108 109 109 109 110 110 110 111 110 110 109 108 104 98
100 97 97 97 97 95 93 94 102 115 108 119 133 129 131 130 128 134 142 129 126 132 128 132 139 136 136 136 136 131 124 122 125 128 128 127 121 111 105 100 97 105 115 111 105 106 108 110 110 112 117 118 113 115 122 124 122 122 122 122 122 120 119 118 117 115 117 116 114 112 111 111 110 109 110 110 109 109 110 111 111 110 108 104 97
99 98 100 100 100 102 100 101 109 111 105 120 128 119 125 130 121 124 134 126 125 130 126 129 134 132 133 131 131 130 125 125 127 129 128 122 114 107 105 105 108 117 112 101 95 96 100 105 109 113 115 114 113 117 122 122 120 121 123 122 120 119 118 117 117 117 118 116 114 113 112 112 111 111 111 110 111 112 114 114 113 112 109 103 96
98 99 102 103 101 100 97 102 108 105 103 117 120 117 127 132 124 127 131 126 125 127 123 123 126 130 131 127 128 129 128 129 129 127 123 119 115 115 113 110 111 112 102 94 91 94 99 105 110 112 112 113 114 119 121 119 120 121 121 119 116 116 116 116 118 117 116 114 113 112 112 112 112 113 113 114 115 116 117 116 114 112 108 101 93
100 102 106 104 97 93 97 105 109 111 111 115 119 119 126 131 125 127 129 124 122 122 120 121 124 129 130 126 124 124 125 125 124 120 116 115 116 117 115 109 105 101 94 90 91 97 104 108 111 113 114 116 118 119 119 119 120 120 117 114 114 114 115 117 117 115 114 113 112 112 113 113 114 115 116 117 118 118 117 114 112 109 104 98 90
106 106 105 98 92 92 98 102 105 115 119 118 123 121 124 131 126 126 129 124 120 121 123 126 129 130 127 125 123 124 124 122 120 116 115 117 117 113 107 100 95 91 88 88 94 103 109 112 114 116 117 118 119 120 119 119 119 117 114 112 113 115 116 117 115 113 113 113 113 114 114 115 116 116 116 117 118 117 116 113 110 106 101 95 88
106 103 99 94 94 99 103 102 105 114 119 124 130 127 130 135 130 127 128 123 120 125 129 131 131 127 126 126 127 130 128 123 120 119 120 120 115 106 97 93 90 90 92 96 103 109 112 114 116 117 117 118 120 120 117 116 115 113 112 113 115 117 116 115 115 114 114 114 114 115 115 116 115 115 116 117 118 117 116 114 109 103 98 92 86
105 104 105 101 101 105 106 105 108 115 123 130 134 133 132 135 135 128 126 123 122 127 131 133 131 127 128 128 129 131 125 121 122 123 123 118 108 100 96 95 96 99 103 107 112 115 115 115 116 115 115 117 118 117 115 113 113 113 114 116 117 117 116 115 114 113 113 114 114 114 115 115 115 116 118 118 118 118 115 112 106 100 94 89 84
110 112 112 108 106 107 109 109 110 114 123 129 132 134 132 133 135 126 125 125 124 127 131 133 131 126 127 127 127 126 122 123 125 124 119 110 103 100 100 101 103 107 110 113 115 114 114 113 111 111 112 114 113 112 112 113 115 115 115 115 116 116 114 113 112 112 112 112 113 114 115 115 116 118 120 118 117 116 112 108 103 98 91 85 80
115 116 115 111 109 109 110 111 110 111 119 126 131 134 133 135 135 130 128 124 123 127 130 131 129 126 125 126 126 125 125 126 125 121 114 107 105 105 106 107 108 111 113 114 113 112 110 108 108 110 112 111 111 110 110 113 115 114 114 114 114 114 112 112 111 111 111 112 113 114 115 115 116 119 119 117 116 114 109 105 101 95 89 82 77
114 115 115 112 111 112 113 112 109 109 117 125 131 133 134 136 134 132 130 124 123 125 127 129 128 127 128 127 127 127 127 125 122 117 113 110 111 111 112 112 112 113 114 113 111 110 108 108 110 110 110 109 108 108 109 110 111 112 112 113 113 112 112 112 111 112 112 113 114 114 114 113 114 117 118 116 115 112 107 102 97 92 87 82 79
113 115 114 113 112 113 114 114 110 111 120 126 130 130 131 133 132 131 128 124 122 123 126 129 128 127 127 126 125 125 124 122 119 116 113 113 115 116 116 115 116 116 116 115 113 111 111 111 111 110 109 108 107 107 108 109 110 110 111 112 112 111 112 113 112 112 113 112 112 111 111 112 114 118 118 115 112 108 103 98 93 90 86 84 81
115 116 113 110 109 111 112 115 114 114 119 123 125 125 126 129 130 129 126 123 121 121 123 123 123 121 120 120 121 122 122 121 119 116 115 117 118 118 118 118 119 120 120 120 118 116 116 114 112 111 109 108 108 109 110 110 109 110 110 111 111 113 113 112 111 111 111 110 111 112 113 114 115 116 114 110 107 103 99 95 93 90 86 83 81
117 117 114 111 108 110 114 118 118 119 120 120 122 125 127 129 130 128 125 122 119 116 116 116 116 117 118 120 123 124 124 122 120 119 119 120 121 121 121 122 123 124 125 125 123 121 119 117 115 113 111 109 111 111 110 108 108 108 109 110 111 112 111 109 110 110 111 112 113 114 114 113 112 111 108 105 102 99 97 95 92 88 85 82 79
122 121 116 114 113 115 119 121 120 121 120 119 121 125 128 130 130 129 126 123 121 119 118 119 120 122 125 126 127 127 125 123 122 121 122 123 124 125 125 126 129 130 130 128 125 123 121 119 118 117 115 115 114 111 107 106 105 106 107 108 110 111 110 110 111 112 112 113 113 112 111 110 108 106 103 100 99 96 95 92 89 85 82 80 78
128 125 119 118 121 122 123 124 123 123 122 121 122 123 125 127 128 128 128 127 127 127 127 128 129 130 130 130 130 128 126 123 123 122 124 126 126 126 127 128 130 131 129 127 125 125 125 124 123 122 121 119 114 109 106 105 105 106 107 107 108 110 111 112 113 114 112 111 109 109 108 106 104 101 98 97 95 94 91 88 85 82 79 78 77
132 127 123 125 128 127 127 126 125 124 123 123 123 123 123 123 125 126 127 129 129 129 130 131 131 132 132 131 130 127 125 123 122 123 124 126 126 125 126 128 129 129 129 129 129 130 130 130 128 125 124 119 113 109 107 106 106 107 108 108 109 110 112 114 115 113 111 109 106 105 104 102 100 97 96 95 93 91 88 85 82 78 75 74 72
137 131 128 131 133 133 131 130 128 127 125 124 124 124 122 121 121 123 124 125 125 126 127 129 131 132 131 130 128 126 124 124 124 124 125 125 125 125 125 126 129 131 134 134 134 135 135 134 131 127 123 118 113 110 108 108 108 108 108 109 110 111 113 114 113 111 109 107 104 103 102 99 97 96 96 94 91 87 84 81 77 72 70 67 64
146 140 134 134 136 137 136 135 132 130 128 127 127 125 123 122 120 120 121 121 122 123 125 127 130 131 130 129 128 127 126 127 127 127 127 126 125 124 124 126 129 134 137 137 137 137 138 137 132 128 123 118 114 111 110 109 109 109 109 111 111 112 113 112 110 109 105 103 102 101 98 97 95 95 94 92 88 83 78 74 70 65 61 58 55
156 147 140 137 137 137 137 137 136 135 132 130 130 129 127 125 123 122 121 121 122 123 125 127 129 130 130 130 130 130 130 130 130 129 127 126 125 124 124 126 130 135 138 139 139 140 141 139 134 129 125 120 116 114 113 112 112 113 114 114 114 113 112 110 109 105 101 98 97 94 92 92 92 92 90 89 84 78 73 67 62 57 51 47 44
162 153 144 139 137 138 137 138 138 138 137 135 133 132 131 129 128 127 125 125 125 125 128 129 131 132 132 133 133 133 132 131 130 128 126 124 125 125 126 128 131 136 139 141 142 143 143 140 136 131 127 124 120 118 117 117 118 119 119 119 117 114 112 111 107 101 100 98 94 90 87 85 86 87 85 83 80 74 67 61 55 48 43 38 32
164 156 147 142 139 139 139 139 139 140 140 139 137 135 134 132 131 130 128 127 128 129 131 132 134 135 136 136 135 134 133 132 131 129 126 125 126 126 127 130 134 139 143 145 146 146 145 142 139 134 130 128 125 124 123 123 124 125 127 126 120 117 114 110 104 100 100 96 93 91 87 85 84 83 82 79 75 68 61 54 48 42 35 29 22
167 158 150 146 142 140 140 140 140 141 142 141 140 138 135 135 133 132 131 130 131 133 135 137 138 139 139 139 138 137 135 134 134 132 130 129 129 128 129 131 136 141 145 148 148 148 148 146 144 139 136 134 131 130 129 129 129 131 134 129 123 119 115 109 105 104 102 97 98 95 91 92 88 84 83 76 67 60 52 46 39 35 29 21 14
169 161 155 151 146 142 141 141 142 142 143 143 141 140 138 136 137 136 136 135 135 136 138 139 140 141 142 142 142 141 140 139 139 137 134 133 132 131 131 133 136 141 145 149 150 150 150 151 150 146 143 140 138 137 136 135 133 136 138 131 128 124 119 118 115 108 100 102 108 99 91 84 84 99 95 79 64 48 38 37 32 27 22 14 8
172 166 161 157 149 145 143 141 143 143 143 144 142 141 140 139 140 140 139 139 139 140 140 140 141 143 144 145 146 147 146 145 143 142 139 137 135 134 133 134 137 139 143 148 150 150 151 154 156 153 149 145 143 142 141 140 138 139 140 135 133 125 120 122 117 108 100 100 96 90 90 71 54 35 26 43 52 40 31 31 28 22 16 11 6
175 172 165 160 153 147 145 142 141 142 142 143 143 142 142 142 143 142 141 141 143 144 144 144 144 146 149 150 151 153 152 150 147 145 143 141 139 138 136 136 138 138 140 145 148 151 151 155 159 158 154 150 148 147 144 143 141 142 141 136 129 121 119 112 102 101 102 99 81 72 54 44 36 8 4 22 34 34 26 18 22 21 13 9 7
178 175 169 161 157 151 148 144 141 142 141 142 143 143 143 144 144 144 143 144 146 149 149 149 149 150 153 154 155 156 157 154 151 148 147 146 146 145 144 142 140 139 136 138 144 150 153 154 155 156 157 156 152 150 148 146 145 144 142 135 124 119 117 105 93 92 87 46 50 63 32 26 29 12 14 19 16 27 27 15 18 17 7 9 10
180 176 173 163 159 156 151 149 146 145 143 142 144 144 144 145 145 144 145 147 149 152 153 153 153 153 155 156 158 159 160 158 154 152 152 153 154 153 154 150 145 140 134 135 143 149 154 155 153 153 158 161 159 156 153 152 151 149 147 144 139 134 115 99 89 78 60 16 10 40 34 25 24 16 17 13 12 29 33 18 14 7 2 9 11
181 177 174 167 162 161 157 154 153 152 149 147 147 147 145 144 146 146 147 149 151 152 154 155 156 156 157 158 160 161 162 162 159 157 158 159 161 162 161 159 152 145 139 141 147 154 159 159 155 154 156 162 164 164 161 158 158 157 157 157 157 156 124 103 92 63 38 5 353 11 13 4 13 20 24 29 28 31 28 14 7 358 0 9 10
184 180 176 171 167 165 163 160 159 158 155 153 153 153 150 148 149 149 148 148 149 151 153 155 156 156 158 159 161 163 164 165 164 162 162 163 166 168 169 167 163 155 151 153 154 158 163 163 161 158 157 160 164 169 169 166 164 163 166 166 166 170 156 115 96 16 358 347 345 1 357 342 0 9 9 26 31 22 14 5 350 343 1 11 8
186 183 177 175 172 169 168 167 165 164 161 159 159 159 157 154 151 149 147 145 145 148 149 151 154 156 158 160 161 163 164 166 167 167 167 167 169 172 173 172 173 168 162 162 161 163 165 165 164 162 158 158 160 164 169 172 171 168 169 170 177 192 187 355 342 327 334 346 349 0 358 350 5 10 5 19 22 7 358 352 344 347 6 16 8
186 183 179 178 177 172 170 171 170 167 166 164 162 162 160 156 151 146 143 141 139 141 145 147 151 155 157 159 159 160 163 166 167 168 170 171 172 175 176 177 180 180 172 166 165 166 166 166 168 165 156 155 157 160 163 166 167 169 170 175 199 242 323 336 345 348 344 350 355 2 7 7 10 10 13 19 8 357 355 351 355 359 8 15 3
186 185 182 180 180 176 173 172 171 168 168 166 164 163 160 154 149 144 140 138 138 140 143 143 145 149 152 154 155 154 156 159 162 166 168 171 172 174 175 177 181 183 177 169 166 167 166 166 170 168 161 157 156 157 160 160 158 165 171 179 203 238 312 321 345 357 349 357 10 13 16 16 13 10 13 14 359 357 2 359 1 3 5 7 355
187 186 184 184 183 180 175 172 170 167 165 166 165 163 161 158 153 151 148 145 146 145 143 141 140 141 141 143 145 147 148 150 154 158 162 166 168 170 172 173 176 178 175 170 168 166 166 168 168 168 169 168 162 160 165 161 152 157 162 154 92 18 358 343 357 8 4 8 16 21 24 21 18 16 12 8 0 359 1 358 360 0 358 2 353
188 187 186 187 185 182 177 174 170 165 164 165 166 164 163 162 161 160 157 153 152 150 146 144 142 138 135 134 134 137 140 143 146 149 152 156 157 160 162 162 164 166 165 166 168 165 164 167 168 169 172 175 173 169 170 171 146 99 64 51 36 18 11 8 10 15 16 12 15 25 30 23 21 24 17 6 359 358 358 355 359 359 351 351 347
190 188 187 187 187 184 180 177 172 165 165 166 166 166 165 166 167 166 163 159 156 154 152 149 147 144 139 136 133 134 135 136 140 141 141 143 143 145 147 149 152 156 157 160 167 169 166 167 169 173 178 180 182 183 183 185 117 35 31 31 28 14 4 3 5 13 15 16 21 24 24 21 18 17 13 3 359 359 3 2 2 359 348 346 346
193 191 188 186 188 187 182 180 175 169 167 167 166 166 167 168 170 171 168 165 161 160 161 158 155 152 146 143 141 140 138 135 133 132 132 131 132 134 135 139 143 149 155 159 168 172 169 168 170 173 179 182 185 187 193 193 110 18 12 19 18 10 358 351 352 359 5 10 15 15 17 25 22 7 357 356 1 2 3 3 2 356 349 350 354
195 193 191 188 188 188 186 182 178 175 172 170 169 167 168 169 170 172 171 168 166 166 167 167 165 162 156 152 150 148 147 143 137 133 131 128 126 130 133 135 138 142 148 155 162 169 171 171 169 171 176 178 181 182 189 211 25 24 21 15 11 8 0 356 352 351 355 359 3 8 16 27 32 14 348 346 355 356 357 358 357 355 353 358 6
Height
5896 5896 5897 5898 5899 5899 5899 5900 5900 5900 5901 5902 5903 5904 5904 5903 5904 5904 5904 5904 5903 5903 5903 5907 5908 5906 5906 5907 5908 5908 5908 5908 5908 5908 5908 5908 5908 5908 5908 5908 5908 5908 5908 5909 5910 5911 5911 5912 5912 5912 5912 5912 5913 5913 5912 5912 5911 5911 5911 5912 5913 5914 5915 5915 5916 5916 5917 5917 5917 5916 5916 5915 5915 5915 5916 5916 5915 5914 5914 5914 5914 5915 5916 5917 5918
5897 5897 5898 5899 5899 5900 5900 5901 5901 5902 5903 5903 5903 5904 5904 5904 5904 5905 5905 5905 5904 5902 5904 5909 5909 5906 5907 5908 5908 5908 5908 5908 5908 5908 5909 5909 5909 5909 5908 5908 5908 5908 5908 5909 5910 5911 5912 5912 5912 5913 5913 5913 5913 5913 5913 5912 5912 5911 5911 5912 5913 5914 5915 5916 5916 5917 5917 5918 5918 5917 5917 5917 5917 5916 5917 5917 5916 5916 5916 5916 5916 5917 5917 5917 5917
5898 5898 5899 5899 5900 5900 5901 5901 5902 5902 5903 5903 5903 5904 5904 5904 5904 5905 5906 5905 5904 5903 5906 5910 5907 5906 5907 5908 5908 5908 5907 5908 5908 5909 5909 5909 5909 5909 5908 5908 5907 5907 5908 5909 5910 5911 5912 5913 5913 5913 5913 5913 5913 5913 5913 5913 5912 5912 5912 5913 5913 5914 5915 5916 5916 5917 5918 5918 5918 5918 5918 5918 5918 5918 5917 5917 5917 5917 5917 5918 5918 5918 5918 5918 5918
5899 5899 5900 5900 5901 5901 5901 5901 5902 5903 5903 5904 5904 5904 5904 5905 5904 5905 5906 5905 5904 5905 5908 5909 5906 5905 5907 5908 5908 5908 5907 5907 5908 5909 5909 5909 5909 5909 5908 5908 5908 5907 5907 5908 5909 5911 5912 5913 5914 5914 5914 5914 5914 5914 5914 5913 5913 5912 5913 5913 5914 5915 5916 5917 5917 5918 5918 5919 5919 5919 5919 5919 5919 5919 5918 5918 5918 5918 5918 5919 5919 5919 5919 5919 5919
5900 5900 5900 5901 5902 5903 5902 5902 5903 5904 5905 5905 5904 5905 5905 5905 5905 5906 5907 5906 5905 5907 5909 5908 5906 5906 5907 5908 5908 5908 5907 5907 5908 5909 5909 5909 5909 5909 5909 5909 5910 5909 5907 5908 5909 5911 5912 5914 5915 5915 5915 5914 5914 5914 5914 5914 5913 5913 5913 5914 5915 5915 5916 5917 5918 5919 5919 5919 5919 5920 5920 5920 5920 5919 5919 5919 5919 5919 5919 5919 5919 5919 5920 5920 5919
5900 5900 5901 5901 5902 5904 5904 5904 5903 5904 5905 5905 5905 5905 5905 5905 5905 5906 5906 5906 5907 5909 5908 5906 5906 5907 5907 5908 5908 5908 5908 5908 5908 5908 5908 5908 5909 5910 5909 5909 5912 5912 5909 5907 5908 5910 5913 5914 5916 5916 5916 5916 5915 5915 5915 5915 5914 5914 5914 5915 5915 5916 5916 5917 5918 5919 5920 5920 5920 5921 5921 5921 5920 5920 5920 5920 5920 5920 5920 5920 5920 5920 5920 5920 5920
5900 5901 5901 5902 5903 5904 5904 5903 5903 5904 5905 5905 5905 5905 5905 5905 5906 5906 5907 5908 5909 5910 5908 5906 5906 5907 5907 5907 5908 5908 5908 5909 5909 5908 5908 5908 5908 5909 5909 5908 5910 5913 5913 5908 5906 5908 5912 5915 5916 5916 5917 5917 5917 5916 5916 5916 5915 5915 5915 5916 5916 5916 5916 5916 5917 5918 5919 5920 5921 5921 5921 5921 5921 5921 5921 5921 5921 5921 5921 5921 5921 5921 5921 5921 5921
5900 5901 5902 5903 5904 5905 5905 5904 5904 5905 5906 5906 5907 5907 5907 5907 5907 5908 5908 5909 5909 5908 5907 5906 5906 5907 5907 5907 5908 5908 5908 5909 5909 5908 5909 5908 5908 5909 5909 5909 5908 5911 5915 5912 5907 5906 5911 5915 5916 5917 5917 5917 5918 5918 5918 5918 5917 5917 5917 5916 5916 5917 5917 5917 5917 5918 5919 5920 5921 5921 5921 5921 5922 5922 5922 5922 5922 5922 5922 5922 5922 5922 5922 5922 5922
5900 5901 5902 5903 5905 5906 5906 5906 5906 5907 5908 5908 5908 5908 5908 5908 5908 5908 5908 5908 5908 5908 5907 5907 5906 5907 5907 5907 5908 5908 5908 5908 5908 5908 5909 5908 5908 5909 5910 5909 5907 5909 5915 5916 5911 5907 5910 5915 5916 5917 5917 5917 5918 5919 5919 5919 5919 5918 5918 5918 5918 5917 5918 5918 5918 5919 5919 5920 5921 5921 5922 5922 5922 5923 5923 5923 5923 5923 5923 5923 5923 5923 5923 5924 5924
5901 5901 5902 5903 5904 5905 5906 5906 5907 5908 5909 5908 5908 5907 5908 5907 5907 5908 5908 5908 5908 5908 5908 5906 5906 5907 5907 5908 5908 5908 5908 5908 5908 5909 5909 5909 5909 5909 5911 5910 5908 5908 5914 5918 5914 5909 5911 5914 5916 5917 5917 5917 5918 5919 5919 5920 5920 5920 5920 5919 5919 5919 5919 5919 5919 5920 5920 5921 5922 5922 5922 5923 5923 5924 5924 5924 5924 5925 5925 5925 5925 5925 5925 5925 5926
5902 5902 5903 5903 5904 5905 5905 5905 5906 5907 5907 5907 5907 5907 5907 5907 5907 5907 5907 5908 5908 5908 5907 5906 5907 5907 5907 5908 5907 5907 5908 5907 5908 5908 5908 5909 5909 5909 5911 5910 5908 5908 5913 5919 5917 5911 5911 5913 5916 5917 5917 5917 5918 5919 5920 5921 5921 5921 5921 5920 5920 5920 5920 5920 5921 5921 5922 5922 5923 5923 5923 5924 5924 5925 5925 5925 5926 5926 5926 5926 5926 5926 5927 5927 5927
5903 5903 5903 5904 5904 5905 5904 5904 5905 5906 5906 5906 5907 5907 5907 5907 5907 5907 5907 5907 5908 5907 5907 5907 5907 5907 5907 5907 5906 5907 5907 5908 5908 5908 5908 5909 5910 5911 5911 5911 5909 5908 5913 5919 5918 5914 5913 5914 5915 5916 5917 5918 5919 5920 5921 5921 5921 5922 5922 5922 5921 5921 5921 5922 5922 5922 5923 5923 5924 5924 5925 5925 5925 5926 5926 5927 5927 5927 5928 5928 5928 5928 5928 5929 5929
5904 5904 5904 5904 5905 5905 5904 5904 5905 5905 5906 5906 5907 5907 5907 5907 5908 5907 5907 5907 5907 5907 5907 5907 5907 5907 5906 5906 5907 5907 5908 5908 5909 5909 5909 5910 5911 5911 5912 5912 5910 5909 5914 5919 5918 5916 5916 5916 5917 5917 5918 5919 5920 5920 5921 5922 5922 5922 5923 5923 5922 5922 5923 5923 5923 5924 5924 5925 5925 5925 5926 5926 5927 5927 5927 5928 5929 5929 5929 5929 5930 5930 5930 5930 5930
5905 5905 5905 5905 5905 5905 5904 5904 5905 5905 5905 5906 5907 5907 5907 5907 5907 5907 5907 5907 5908 5907 5907 5907 5907 5907 5907 5908 5908 5908 5908 5909 5909 5910 5910 5911 5912 5912 5912 5911 5909 5910 5915 5919 5918 5918 5918 5918 5919 5919 5919 5919 5920 5921 5922 5923 5923 5923 5924 5924 5924 5924 5924 5925 5925 5925 5926 5926 5926 5927 5927 5927 5928 5929 5929 5930 5930 5930 5931 5931 5931 5931 5932 5932 5932
5907 5906 5906 5906 5906 5906 5906 5906 5906 5905 5906 5906 5907 5907 5907 5907 5907 5907 5906 5907 5908 5907 5907 5907 5907 5907 5908 5908 5909 5909 5910 5910 5910 5911 5912 5912 5912 5912 5912 5911 5910 5913 5917 5919 5917 5917 5918 5919 5920 5920 5920 5920 5921 5922 5923 5924 5924 5925 5925 5925 5925 5925 5925 5926 5926 5927 5927 5927 5928 5928 5928 5929 5929 5930 5931 5931 5931 5932 5932 5932 5932 5933 5933 5933 5933
5907 5907 5906 5906 5907 5907 5907 5907 5907 5906 5906 5906 5907 5907 5907 5908 5908 5907 5906 5907 5908 5908 5907 5908 5908 5908 5908 5909 5910 5911 5911 5911 5912 5912 5913 5913 5913 5913 5914 5913 5913 5917 5918 5916 5916 5917 5918 5920 5920 5921 5921 5921 5922 5923 5924 5925 5925 5926 5926 5926 5926 5926 5927 5927 5927 5928 5928 5929 5929 5930 5930 5930 5931 5931 5932 5932 5932 5933 5933 5933 5933 5933 5934 5934 5934
5908 5907 5907 5907 5908 5908 5908 5908 5908 5907 5907 5906 5907 5907 5907 5908 5908 5908 5907 5907 5908 5908 5908 5908 5909 5909 5909 5910 5911 5911 5912 5912 5913 5913 5914 5914 5914 5915 5916 5915 5916 5918 5917 5915 5916 5917 5919 5920 5921 5922 5922 5923 5923 5925 5925 5926 5926 5927 5927 5927 5927 5928 5928 5928 5929 5929 5930 5930 5931 5931 5931 5932 5932 5932 5933 5933 5933 5934 5934 5934 5934 5934 5935 5935 5935
5909 5908 5907 5908 5909 5909 5908 5908 5908 5908 5907 5907 5907 5908 5908 5908 5908 5909 5908 5908 5908 5909 5909 5909 5910 5911 5911 5911 5911 5912 5913 5913 5913 5914 5915 5915 5916 5917 5917 5916 5917 5917 5916 5916 5917 5919 5920 5921 5922 5923 5923 5924 5925 5926 5927 5927 5928 5928 5928 5928 5928 5929 5929 5929 5930 5930 5931 5931 5932 5932 5933 5933 5933 5934 5934 5934 5934 5935 5935 5935 5935 5935 5935 5936 5936
5909 5908 5908 5908 5909 5909 5909 5909 5909 5909 5908 5907 5908 5909 5909 5908 5909 5909 5910 5910 5910 5910 5910 5910 5911 5911 5912 5912 5913 5913 5914 5914 5914 5915 5916 5917 5918 5918 5917 5916 5916 5916 5916 5917 5919 5921 5922 5923 5924 5924 5925 5926 5927 5927 5928 5929 5929 5929 5929 5929 5929 5930 5930 5930 5931 5931 5932 5932 5933 5933 5934 5934 5935 5935 5935 5935 5936 5936 5936 5936 5936 5936 5936 5936 5936
5910 5909 5908 5909 5910 5910 5909 5910 5910 5909 5909 5909 5909 5909 5910 5909 5909 5910 5910 5911 5912 5911 5911 5911 5912 5912 5913 5913 5913 5914 5915 5915 5916 5917 5918 5919 5919 5917 5916 5916 5916 5917 5918 5920 5921 5923 5924 5924 5925 5926 5926 5927 5928 5929 5929 5930 5930 5930 5930 5930 5930 5931 5931 5931 5932 5932 5933 5934 5934 5935 5935 5936 5936 5936 5937 5937 5937 5937 5937 5937 5937 5937 5937 5937 5937
5910 5910 5909 5910 5911 5911 5911 5911 5911 5911 5910 5910 5910 5911 5911 5910 5910 5910 5911 5911 5913 5913 5913 5913 5913 5913 5914 5914 5915 5915 5916 5916 5917 5918 5919 5919 5918 5917 5916 5916 5917 5919 5920 5922 5923 5924 5925 5926 5926 5927 5928 5928 5929 5929 5930 5930 5930 5930 5930 5931 5931 5932 5932 5933 5933 5933 5934 5935 5936 5936 5937 5937 5937 5937 5938 5938 5938 5938 5938 5938 5938 5938 5938 5938 5938
5912 5911 5911 5912 5912 5912 5912 5912 5912 5912 5912 5911 5911 5912 5912 5911 5911 5910 5911 5912 5913 5914 5914 5914 5914 5914 5915 5915 5916 5917 5917 5918 5919 5920 5920 5919 5917 5917 5917 5918 5920 5921 5922 5924 5925 5926 5926 5927 5927 5928 5929 5929 5930 5930 5930 5930 5930 5931 5931 5932 5932 5933 5933 5934 5934 5935 5936 5936 5937 5937 5938 5938 5938 5939 5939 5939 5939 5939 5939 5939 5939 5939 5939 5939 5939
5912 5912 5911 5912 5913 5913 5912 5912 5913 5913 5913 5912 5912 5912 5913 5912 5912 5912 5912 5913 5914 5915 5915 5915 5916 5916 5916 5917 5918 5918 5919 5920 5920 5920 5919 5918 5918 5919 5919 5920 5922 5923 5924 5925 5926 5927 5927 5928 5928 5929 5930 5930 5930 5931 5931 5931 5931 5932 5932 5933 5934 5934 5934 5935 5935 5936 5937 5937 5938 5939 5939 5939 5940 5940 5940 5940 5940 5940 5940 5940 5940 5940 5940 5940 5940
5913 5912 5912 5913 5914 5914 5913 5913 5913 5913 5914 5913 5913 5913 5914 5913 5913 5913 5914 5915 5915 5916 5916 5917 5917 5918 5918 5919 5919 5920 5921 5921 5921 5920 5920 5919 5920 5921 5921 5922 5924 5925 5926 5927 5927 5928 5928 5929 5930 5930 5931 5931 5931 5931 5932 5932 5932 5933 5934 5934 5935 5935 5935 5936 5937 5937 5938 5939 5939 5940 5940 5940 5941 5941 5941 5941 5941 5941 5941 5941 5941 5941 5941 5941 5941
5914 5913 5913 5913 5914 5915 5914 5914 5914 5914 5914 5914 5914 5914 5914 5914 5914 5915 5915 5916 5916 5917 5917 5918 5919 5920 5920 5920 5921 5921 5922 5922 5922 5921 5921 5922 5922 5923 5923 5924 5925 5926 5927 5928 5929 5929 5930 5930 5931 5931 5931 5931 5932 5932 5933 5934 5934 5934 5935 5936 5936 5936 5937 5937 5938 5939 5939 5940 5940 5941 5941 5942 5942 5942 5942 5942 5942 5942 5942 5942 5942 5942 5942 5941 5941
5914 5914 5913 5914 5915 5915 5915 5915 5914 5915 5915 5915 5915 5915 5915 5915 5916 5916 5916 5917 5917 5918 5918 5919 5920 5920 5921 5921 5922 5922 5923 5923 5923 5923 5923 5924 5924 5925 5925 5926 5927 5928 5929 5929 5930 5930 5931 5931 5932 5932 5932 5933 5933 5934 5935 5935 5936 5936 5937 5937 5937 5938 5938 5938 5939 5940 5941 5941 5942 5942 5943 5943 5943 5943 5943 5943 5944 5943 5943 5943 5943 5942 5942 5942 5942
5915 5915 5914 5914 5915 5916 5916 5916 5915 5915 5915 5916 5916 5916 5917 5917 5917 5917 5917 5917 5918 5918 5919 5919 5920 5921 5921 5922 5923 5924 5924 5924 5924 5925 5925 5926 5926 5927 5927 5928 5929 5929 5930 5931 5931 5931 5932 5932 5933 5933 5934 5934 5935 5936 5936 5937 5937 5937 5938 5938 5939 5939 5940 5940 5941 5942 5942 5943 5943 5944 5944 5944 5944 5944 5944 5944 5944 5944 5944 5944 5943 5943 5943 5943 5942
5916 5916 5915 5915 5915 5916 5917 5917 5916 5916 5916 5916 5917 5917 5918 5918 5918 5919 5919 5919 5919 5920 5920 5921 5922 5923 5923 5924 5925 5926 5926 5926 5926 5926 5927 5928 5928 5929 5929 5930 5930 5931 5931 5932 5932 5932 5933 5933 5934 5934 5935 5936 5937 5937 5937 5938 5938 5939 5939 5940 5940 5940 5941 5941 5942 5943 5944 5945 5945 5945 5946 5946 5946 5946 5946 5946 5945 5945 5945 5944 5944 5943 5943 5943 5943
5917 5917 5916 5916 5916 5916 5917 5917 5918 5918 5918 5918 5918 5918 5919 5919 5920 5920 5920 5921 5921 5922 5923 5923 5924 5925 5926 5926 5927 5927 5927 5927 5928 5928 5929 5930 5930 5931 5931 5932 5932 5932 5933 5933 5933 5934 5934 5935 5935 5936 5937 5937 5938 5938 5939 5939 5940 5940 5941 5941 5941 5942 5942 5944 5944 5945 5946 5946 5947 5947 5947 5947 5947 5947 5947 5947 5946 5946 5945 5945 5944 5944 5944 5943 5943
5918 5918 5918 5917 5917 5917 5918 5918 5919 5919 5919 5919 5919 5920 5920 5920 5921 5922 5922 5923 5923 5924 5924 5925 5926 5927 5927 5928 5928 5928 5928 5929 5929 5930 5931 5931 5932 5932 5933 5933 5933 5934 5934 5934 5935 5935 5936 5936 5937 5937 5938 5939 5939 5940 5940 5941 5941 5942 5942 5943 5943 5944 5945 5946 5947 5947 5947 5947 5948 5948 5948 5948 5948 5948 5948 5948 5947 5947 5946 5945 5945 5944 5944 5944 5943
5919 5919 5919 5919 5918 5918 5918 5919 5919 5920 5921 5921 5921 5921 5921 5922 5922 5923 5923 5924 5924 5925 5925 5926 5927 5928 5928 5929 5929 5929 5930 5930 5930 5931 5932 5933 5933 5934 5934 5934 5935 5935 5935 5936 5936 5937 5937 5938 5938 5939 5940 5940 5941 5941 5942 5942 5943 5943 5944 5944 5945 5946 5947 5948 5948 5949 5949 5949 5949 5949 5949 5949 5949 5949 5949 5948 5948 5947 5947 5946 5946 5945 5945 5944 5943
5919 5920 5920 5920 5920 5920 5919 5919 5920 5921 5922 5922 5923 5923 5923 5923 5924 5924 5924 5925 5925 5926 5927 5928 5928 5929 5929 5929 5930 5930 5931 5931 5932 5932 5933 5934 5934 5935 5935 5935 5936 5936 5937 5937 5938 5938 5939 5939 5940 5940 5941 5942 5942 5943 5943 5944 5944 5945 5945 5946 5946 5947 5948 5949 5950 5950 5950 5950 5950 5950 5950 5950 5950 5950 5950 5949 5949 5948 5947 5947 5946 5945 5945 5944 5943
5920 5920 5920 5921 5921 5921 5921 5921 5921 5922 5922 5923 5924 5924 5924 5925 5925 5926 5926 5926 5927 5927 5928 5929 5929 5930 5930 5931 5931 5932 5932 5933 5933 5934 5934 5935 5935 5936 5936 5937 5937 5938 5938 5939 5939 5940 5940 5940 5941 5941 5942 5943 5943 5944 5944 5945 5946 5946 5947 5947 5947 5948 5949 5950 5950 5950 5951 5951 5951 5951 5951 5951 5951 5951 5950 5950 5949 5949 5948 5947 5946 5946 5945 5944 5943
5921 5921 5921 5921 5922 5922 5922 5922 5922 5922 5923 5924 5925 5926 5926 5926 5927 5927 5928 5928 5929 5929 5929 5930 5931 5931 5932 5932 5933 5933 5933 5934 5934 5935 5935 5936 5937 5937 5938 5938 5939 5939 5940 5941 5941 5941 5941 5941 5942 5942 5943 5943 5944 5945 5945 5946 5947 5947 5948 5948 5948 5949 5949 5949 5950 5950 5950 5950 5950 5951 5951 5952 5951 5951 5951 5950 5949 5949 5948 5947 5946 5946 5945 5944 5943
5921 5922 5922 5922 5922 5923 5923 5923 5923 5923 5924 5925 5926 5926 5927 5928 5928 5929 5929 5929 5930 5930 5931 5931 5932 5933 5933 5934 5934 5935 5935 5935 5936 5936 5937 5937 5938 5939 5939 5940 5940 5941 5941 5942 5942 5943 5943 5943 5943 5943 5943 5944 5945 5946 5947 5947 5948 5948 5948 5948 5948 5949 5949 5948 5949 5950 5950 5949 5950 5951 5951 5951 5951 5951 5950 5950 5949 5949 5948 5947 5946 5946 5945 5944 5943
5922 5922 5923 5923 5923 5923 5924 5924 5924 5925 5925 5925 5926 5927 5927 5928 5929 5929 5930 5930 5931 5931 5932 5932 5933 5933 5934 5935 5935 5936 5937 5937 5937 5938 5938 5939 5939 5940 5941 5941 5942 5942 5943 5943 5943 5944 5944 5944 5944 5944 5944 5945 5946 5947 5947 5948 5948 5949 5949 5949 5949 5949 5949 5949 5949 5950 5950 5949 5950 5950 5951 5951 5951 5950 5950 5949 5949 5948 5948 5947 5947 5946 5945 5944 5943
5922 5923 5923 5924 5924 5924 5924 5925 5925 5925 5926 5926 5927 5927 5927 5928 5929 5930 5930 5931 5932 5932 5933 5933 5933 5934 5935 5936 5937 5938 5938 5939 5939 5939 5940 5940 5941 5941 5942 5943 5943 5943 5944 5944 5944 5945 5945 5945 5945 5946 5946 5946 5947 5947 5948 5949 5949 5949 5950 5951 5950 5949 5949 5949 5949 5950 5950 5950 5949 5951 5951 5950 5950 5949 5948 5947 5948 5949 5948 5947 5947 5946 5945 5944 5943
5923 5923 5923 5924 5924 5924 5925 5925 5925 5926 5926 5927 5927 5928 5928 5929 5930 5930 5931 5932 5933 5933 5933 5934 5934 5935 5936 5937 5938 5939 5940 5940 5941 5941 5941 5942 5942 5943 5943 5944 5944 5944 5944 5945 5945 5945 5946 5946 5946 5947 5947 5947 5948 5948 5949 5949 5950 5950 5950 5951 5950 5949 5949 5949 5949 5950 5951 5949 5949 5951 5950 5950 5949 5948 5948 5947 5947 5948 5948 5947 5947 5946 5945 5944 5943
5923 5923 5923 5924 5924 5925 5925 5925 5926 5926 5927 5928 5928 5929 5929 5930 5931 5931 5932 5933 5934 5934 5934 5935 5935 5936 5937 5938 5939 5940 5941 5941 5942 5942 5943 5943 5943 5944 5944 5945 5945 5945 5945 5945 5946 5946 5946 5947 5947 5948 5948 5948 5949 5949 5950 5950 5951 5951 5951 5951 5951 5950 5950 5950 5950 5951 5951 5950 5949 5950 5949 5949 5949 5948 5948 5947 5948 5948 5947 5947 5947 5946 5945 5944 5943
5924 5924 5924 5924 5925 5925 5926 5926 5926 5927 5928 5928 5929 5930 5930 5931 5932 5932 5933 5934 5934 5935 5936 5936 5937 5937 5938 5939 5940 5941 5942 5942 5943 5943 5944 5944 5944 5945 5945 5946 5946 5946 5946 5946 5947 5947 5947 5948 5948 5949 5949 5950 5950 5950 5951 5951 5951 5952 5951 5951 5951 5951 5951 5951 5951 5951 5951 5951 5950 5951 5950 5949 5950 5949 5948 5948 5948 5948 5946 5946 5946 5945 5944 5943 5942
5924 5924 5925 5925 5926 5926 5926 5927 5927 5928 5928 5929 5930 5930 5931 5932 5933 5933 5934 5934 5935 5936 5937 5937 5938 5938 5939 5940 5941 5942 5942 5943 5943 5944 5944 5945 5945 5946 5946 5947 5947 5947 5947 5947 5948 5948 5948 5948 5949 5949 5950 5951 5951 5951 5952 5952 5952 5952 5952 5952 5952 5951 5951 5951 5952 5952 5952 5951 5951 5951 5951 5950 5950 5950 5949 5948 5948 5947 5946 5946 5945 5944 5943 5942 5942
5924 5925 5925 5926 5926 5926 5927 5927 5928 5928 5929 5929 5930 5931 5932 5932 5933 5934 5934 5935 5936 5936 5937 5938 5938 5939 5940 5940 5941 5942 5943 5943 5944 5944 5945 5945 5946 5946 5947 5947 5948 5948 5948 5948 5948 5949 5949 5949 5949 5949 5950 5951 5952 5952 5952 5952 5953 5953 5953 5953 5952 5952 5952 5952 5952 5952 5952 5952 5951 5951 5952 5951 5950 5950 5949 5948 5947 5947 5946 5945 5944 5943 5942 5941 5941
5924 5925 5925 5926 5926 5927 5927 5928 5928 5928 5929 5929 5930 5931 5932 5933 5933 5934 5935 5935 5936 5937 5937 5938 5939 5939 5940 5940 5941 5942 5943 5943 5944 5945 5945 5946 5947 5947 5947 5948 5948 5948 5948 5949 5949 5949 5949 5950 5950 5950 5951 5951 5952 5953 5953 5953 5953 5953 5953 5953 5953 5953 5953 5952 5952 5952 5952 5952 5952 5952 5952 5952 5951 5950 5949 5948 5948 5947 5946 5944 5943 5943 5942 5941 5941
5924 5925 5925 5926 5927 5927 5928 5928 5929 5929 5929 5930 5930 5931 5932 5932 5933 5934 5935 5936 5936 5937 5938 5938 5939 5939 5940 5940 5941 5942 5942 5943 5944 5945 5945 5946 5947 5948 5948 5948 5949 5949 5949 5949 5950 5950 5950 5950 5950 5951 5951 5951 5952 5953 5953 5954 5954 5954 5954 5954 5954 5953 5953 5953 5953 5953 5953 5953 5952 5952 5953 5952 5951 5950 5949 5948 5948 5947 5946 5945 5943 5943 5943 5941 5941
5923 5924 5925 5926 5927 5928 5928 5929 5929 5929 5930 5930 5931 5932 5932 5933 5934 5935 5935 5936 5937 5937 5938 5939 5939 5940 5940 5940 5941 5941 5942 5943 5944 5945 5946 5946 5947 5948 5948 5949 5949 5949 5950 5950 5950 5951 5951 5951 5951 5951 5952 5952 5952 5953 5953 5953 5954 5954 5954 5954 5954 5954 5954 5954 5954 5954 5953 5953 5953 5952 5952 5952 5951 5950 5949 5948 5948 5947 5947 5946 5944 5944 5944 5942 5941
5923 5924 5925 5926 5927 5928 5928 5929 5930 5930 5930 5931 5931 5932 5933 5934 5935 5935 5936 5936 5937 5938 5938 5939 5939 5940 5940 5941 5941 5942 5942 5943 5944 5945 5946 5946 5947 5947 5948 5949 5949 5950 5950 5951 5951 5951 5951 5952 5952 5952 5952 5953 5953 5953 5953 5953 5954 5954 5954 5954 5954 5954 5954 5954 5954 5954 5953 5953 5953 5952 5952 5951 5950 5950 5949 5948 5948 5947 5947 5946 5945 5944 5943 5942 5941
5923 5924 5925 5926 5927 5928 5928 5929 5930 5930 5931 5931 5932 5932 5933 5934 5935 5935 5936 5937 5937 5938 5938 5939 5940 5940 5941 5941 5942 5942 5943 5944 5944 5945 5946 5947 5947 5948 5948 5949 5949 5950 5950 5951 5951 5951 5952 5952 5952 5953 5953 5953 5953 5953 5953 5954 5954 5954 5954 5955 5955 5955 5955 5954 5954 5954 5953 5953 5953 5952 5952 5951 5950 5950 5949 5949 5948 5948 5947 5946 5945 5944 5943 5942 5941
5922 5923 5924 5926 5927 5928 5929 5929 5930 5930 5931 5931 5932 5932 5933 5934 5935 5935 5936 5937 5937 5938 5939 5939 5940 5941 5941 5942 5942 5943 5944 5944 5945 5946 5946 5947 5947 5948 5948 5949 5950 5950 5951 5951 5951 5952 5952 5952 5953 5953 5953 5954 5954 5954 5954 5954 5955 5955 5955 5955 5955 5955 5955 5955 5954 5954 5953 5953 5953 5952 5952 5951 5950 5950 5949 5949 5948 5948 5947 5946 5945 5944 5943 5942 5941
5922 5923 5924 5925 5927 5928 5929 5929 5930 5931 5931 5932 5932 5933 5933 5934 5935 5936 5936 5937 5938 5938 5939 5940 5941 5941 5942 5943 5943 5944 5945 5945 5946 5947 5947 5948 5948 5948 5949 5949 5950 5950 5951 5951 5952 5952 5952 5952 5953 5953 5953 5954 5954 5954 5954 5955 5955 5955 5955 5955 5955 5955 5955 5955 5955 5954 5953 5953 5952 5952 5951 5951 5950 5950 5949 5949 5948 5947 5946 5945 5944 5943 5942 5942 5941
5922 5923 5924 5925 5926 5928 5929 5929 5930 5931 5931 5932 5932 5933 5933 5934 5935 5936 5937 5937 5938 5939 5940 5941 5941 5942 5943 5943 5944 5945 5946 5946 5947 5947 5948 5948 5948 5948 5949 5949 5950 5950 5951 5951 5952 5952 5952 5952 5953 5953 5953 5954 5954 5954 5955 5955 5955 5955 5956 5956 5955 5955 5955 5955 5954 5954 5953 5953 5952 5952 5951 5951 5950 5950 5949 5948 5948 5947 5946 5945 5944 5943 5942 5941 5941
5922 5923 5924 5925 5926 5927 5928 5929 5930 5931 5931 5932 5933 5933 5934 5934 5935 5936 5937 5938 5938 5939 5940 5941 5942 5943 5943 5944 5945 5946 5946 5947 5948 5948 5948 5949 5949 5949 5949 5950 5950 5951 5951 5951 5952 5952 5952 5953 5953 5953 5954 5954 5954 5954 5955 5955 5955 5955 5955 5955 5955 5955 5955 5954 5954 5953 5953 5953 5952 5951 5951 5950 5950 5949 5949 5948 5947 5946 5946 5945 5944 5943 5942 5942 5941